CW8429 Weather Reports


Display with metric or nautical units.
time (UTC)temp
F
wind
direction
speed
MPH
gust
MPH
rain 1hr
in
rain 24hr
in
rain mn
in
humidity
%
barometer
mb
20260902195620 74 221 7.0 14.0 0.00 0.00 0.00 31 1013.7
20260902194624 75 176 8.0 13.0 0.00 0.00 0.00 31 1013.7
20260902193614 75 150 11.0 18.0 0.00 0.00 0.00 28 1013.9
20260902192623 74 148 7.0 22.0 0.00 0.00 0.00 31 1014.0
20260902191653 74 136 9.0 14.0 0.00 0.00 0.00 28 1014.1
20260902190625 74 144 6.0 18.0 0.00 0.00 0.00 27 1014.0
20260902185626 74 151 6.0 14.0 0.00 0.00 0.00 29 1014.2
20260902184620 73 27 6.0 14.0 0.00 0.00 0.00 30 1014.3
20260902183630 74 255 7.0 19.0 0.00 0.00 0.00 28 1014.5
20260902182639 74 123 8.0 23.0 0.00 0.00 0.00 27 1014.5
20260902181651 74 144 8.0 19.0 0.00 0.00 0.00 27 1014.5
20260902180625 73 159 9.0 21.0 0.00 0.00 0.00 28 1014.7
20260902175626 73 190 5.0 14.0 0.00 0.00 0.00 29 1014.7
20260902174615 73 95 6.0 25.0 0.00 0.00 0.00 29 1014.9
20260902173625 73 143 8.0 18.0 0.00 0.00 0.00 29 1014.9
20260902172618 73 112 5.0 10.0 0.00 0.00 0.00 30 1014.9
20260902171629 71 83 7.0 24.0 0.00 0.00 0.00 30 1015.1
20260902170620 70 42 3.0 14.0 0.00 0.00 0.00 30 1015.0
20260902165621 72 176 6.0 12.0 0.00 0.00 0.00 30 1014.9
20260902164615 72 204 8.0 16.0 0.00 0.00 0.00 30 1015.0
20260902163645 71 250 7.0 14.0 0.00 0.00 0.00 31 1014.9
20260902162615 70 130 10.0 26.0 0.00 0.00 0.00 31 1014.8
20260902161620 69 95 9.0 19.0 0.00 0.00 0.00 34 1014.7
20260902160633 68 167 14.0 22.0 0.00 0.00 0.00 34 1014.6
20260902155613 68 84 8.0 12.0 0.00 0.00 0.00 43 1014.6
20260902154623 69 135 9.0 19.0 0.00 0.00 0.00 42 1014.6
20260902153612 69 147 10.0 21.0 0.00 0.00 0.00 40 1014.6
20260902152626 68 178 8.0 15.0 0.00 0.00 0.00 43 1014.7
20260902151613 67 119 9.0 13.0 0.00 0.00 0.00 45 1014.8
20260902150623 66 136 9.0 13.0 0.00 0.00 0.00 46 1014.7
20260902145626 65 117 9.0 14.0 0.00 0.00 0.00 48 1014.7
20260902144620 65 163 7.0 15.0 0.00 0.00 0.00 50 1014.8
20260902143632 64 132 7.0 12.0 0.00 0.00 0.00 51 1014.7
20260902142623 60 103 9.0 14.0 0.00 0.00 0.00 59 1014.6
20260902141614 56 309 1.0 4.0 0.00 0.00 0.00 69 1014.7
20260902140631 56 178 5.0 9.0 0.00 0.00 0.00 68 1014.7
20260902135614 52 276 0.0 2.0 0.00 0.00 0.00 75 1014.8
20260902134625 52 275 1.0 8.0 0.00 0.00 0.00 75 1014.8
20260902133620 53 263 3.0 10.0 0.00 0.00 0.00 75 1014.9
20260902132627 52 69 0.0 3.0 0.00 0.00 0.00 77 1014.9
20260902131613 52 68 0.0 6.0 0.00 0.00 0.00 77 1014.9
20260902130636 51 250 0.0 0.0 0.00 0.00 0.00 79 1014.9
20260902125639 51 250 0.0 0.0 0.00 0.00 0.00 78 1014.8
20260902124614 51 250 0.0 0.0 0.00 0.00 0.00 79 1014.6
20260902123621 51 247 1.0 4.0 0.00 0.00 0.00 78 1014.6
20260902122650 52 230 1.0 5.0 0.00 0.00 0.00 77 1014.7
20260902121629 52 194 0.0 2.0 0.00 0.00 0.00 77 1014.7
20260902120618 52 196 1.0 4.0 0.00 0.00 0.00 75 1014.8
20260902115626 53 196 0.0 0.0 0.00 0.00 0.00 76 1014.9
20260902114617 53 196 0.0 0.0 0.00 0.00 0.00 76 1014.9
20260902113628 53 196 0.0 0.0 0.00 0.00 0.00 75 1014.9
20260902112623 54 169 0.0 0.0 0.00 0.00 0.00 74 1015.0
20260902111636 55 169 0.0 0.0 0.00 0.00 0.00 72 1015.1
20260902110626 55 166 0.0 0.0 0.00 0.00 0.00 72 1015.1
20260902105650 54 165 0.0 0.0 0.00 0.00 0.00 73 1015.1
20260902104620 55 167 0.0 0.0 0.00 0.00 0.00 73 1015.1
20260902103614 56 167 0.0 0.0 0.00 0.00 0.00 70 1015.1
20260902102624 57 116 0.0 0.0 0.00 0.00 0.00 69 1015.1
20260902101614 57 116 0.0 4.0 0.00 0.00 0.00 68 1015.1
20260902100629 57 116 4.0 7.0 0.00 0.00 0.00 68 1015.2
20260902095630 58 172 0.0 3.0 0.00 0.00 0.00 66 1015.3
20260902094620 60 172 0.0 5.0 0.00 0.00 0.00 62 1015.3
20260902093631 60 169 5.0 7.0 0.00 0.00 0.00 62 1015.2
20260902092625 60 184 4.0 9.0 0.00 0.00 0.00 61 1015.2
20260902091635 61 159 5.0 12.0 0.00 0.00 0.00 61 1015.1
20260902090623 60 126 7.0 15.0 0.00 0.00 0.00 62 1015.1
20260902085646 59 192 7.0 10.0 0.00 0.00 0.00 65 1015.2
20260902084616 56 111 4.0 9.0 0.00 0.00 0.00 72 1015.1
20260902083628 56 215 0.0 0.0 0.00 0.00 0.00 74 1015.2
20260902082616 55 215 0.0 0.0 0.00 0.00 0.00 75 1015.2
20260902081627 55 215 0.0 0.0 0.00 0.00 0.00 75 1015.2
20260902080637 56 215 0.0 0.0 0.00 0.00 0.00 74 1015.1
20260902075621 56 215 0.0 0.0 0.00 0.00 0.00 73 1015.1
20260902074612 56 215 0.0 0.0 0.00 0.00 0.00 72 1015.1
20260902073622 57 215 0.0 0.0 0.00 0.00 0.00 71 1015.1
20260902072633 57 215 0.0 0.0 0.00 0.00 0.00 70 1015.0
20260902071627 57 215 0.0 0.0 0.00 0.00 0.00 69 1015.0
20260902070618 58 137 0.0 3.0 0.00 0.00 0.00 66 1014.8
20260902065620 59 137 1.0 4.0 0.00 0.00 0.00 64 1014.9
20260902064615 59 137 3.0 5.0 0.00 0.00 0.00 63 1014.9
20260902063624 59 134 3.0 5.0 0.00 0.00 0.00 64 1014.9
20260902062633 58 112 3.0 6.0 0.00 0.00 0.00 65 1014.9
20260902061621 58 92 2.0 6.0 0.00 0.00 0.00 66 1014.9
20260902060618 59 76 2.0 4.0 0.00 0.00 0.00 66 1015.2
20260902055643 60 173 0.0 0.0 0.00 0.00 0.00 61 1015.1
20260902054617 61 173 0.0 0.0 0.00 0.00 0.00 60 1015.1
20260902053628 62 173 0.0 5.0 0.00 0.00 0.00 58 1015.0
20260902052639 63 180 4.0 9.0 0.00 0.00 0.00 55 1015.0
20260902051614 63 102 4.0 9.0 0.00 0.00 0.00 56 1015.0
20260902050625 62 86 6.0 10.0 0.00 0.00 0.00 58 1015.1
20260902045627 63 90 7.0 10.0 0.00 0.00 0.00 59 1015.5
20260902044618 64 141 4.0 14.0 0.00 0.00 0.00 53 1015.9
20260902043613 63 135 4.0 7.0 0.00 0.00 0.00 55 1015.5
20260902042624 63 144 4.0 5.0 0.00 0.00 0.00 55 1015.4
20260902041615 64 245 0.0 7.0 0.00 0.00 0.00 54 1015.4
20260902040625 64 103 5.0 11.0 0.00 0.00 0.00 52 1015.3
20260902035614 63 66 8.0 11.0 0.00 0.00 0.00 54 1015.3
20260902034624 63 109 7.0 10.0 0.00 0.00 0.00 56 1015.3
20260902033615 62 92 5.0 9.0 0.00 0.00 0.00 58 1015.5
20260902032648 63 115 5.0 7.0 0.00 0.00 0.00 56 1015.5
20260902031622 65 160 4.0 11.0 0.00 0.00 0.00 49 1015.3
20260902030614 67 189 4.0 7.0 0.00 0.00 0.00 45 1014.9
20260902025616 66 156 3.0 9.0 0.00 0.00 0.00 45 1014.8
20260902024626 66 158 4.0 7.0 0.00 0.00 0.00 45 1014.7
20260902023620 67 87 4.0 8.0 0.00 0.00 0.00 46 1014.6
20260902022630 67 122 5.0 7.0 0.00 0.00 0.00 47 1014.6
20260902021637 68 130 1.0 7.0 0.00 0.00 0.00 45 1014.7
20260902020646 68 156 0.0 3.0 0.00 0.00 0.00 48 1014.7
20260902015625 69 156 0.0 0.0 0.00 0.00 0.00 48 1014.7
20260902014619 70 156 0.0 0.0 0.00 0.00 0.00 48 1014.6
20260902013629 70 156 0.0 0.0 0.00 0.00 0.00 45 1014.6
20260902012618 71 156 0.0 1.0 0.00 0.00 0.00 43 1014.7
20260902011613 72 156 0.0 6.0 0.00 0.00 0.00 42 1014.6
20260902010623 72 140 2.0 10.0 0.00 0.00 0.00 40 1014.7
20260902005626 72 96 5.0 10.0 0.00 0.00 0.00 39 1014.7
20260902004616 72 269 2.0 10.0 0.00 0.00 0.00 40 1014.9
20260902003630 73 75 4.0 8.0 0.00 0.00 0.00 39 1014.9
20260902002620 74 130 4.0 8.0 0.00 0.00 0.00 37 1014.9
20260902001629 75 204 4.0 11.0 0.00 0.00 0.00 35 1014.7
20260902000620 75 186 4.0 11.0 0.00 0.00 0.00 34 1014.8
20260901235628 74 144 4.0 7.0 0.00 0.03 0.00 36 1014.8
20260901234617 74 271 2.0 9.0 0.00 0.03 0.00 38 1014.9
20260901233627 74 317 3.0 7.0 0.00 0.03 0.00 37 1014.9
20260901232618 74 211 2.0 9.0 0.00 0.03 0.00 37 1014.9
20260901231614 76 130 4.0 11.0 0.00 0.03 0.00 34 1015.0
20260901230624 76 178 7.0 16.0 0.00 0.03 0.00 34 1015.1
20260901225628 75 101 5.0 16.0 0.00 0.21 0.00 35 1015.3
20260901224619 76 137 7.0 14.0 0.00 0.21 0.00 34 1015.2
20260901223615 75 28 5.0 10.0 0.00 0.21 0.00 38 1015.4
20260901222624 74 5 2.0 9.0 0.00 0.21 0.00 42 1015.4
20260901221614 74 139 5.0 9.0 0.00 0.21 0.00 41 1015.6
20260901220645 74 195 3.0 10.0 0.00 0.21 0.00 40 1015.9
20260901215629 74 160 5.0 13.0 0.00 0.21 0.00 40 1016.0
20260901214618 73 157 5.0 14.0 0.00 0.21 0.00 38 1016.3
20260901213628 73 188 5.0 14.0 0.00 0.21 0.00 40 1016.1
20260901212622 74 107 4.0 9.0 0.00 0.21 0.00 40 1016.1
20260901211651 75 12 6.0 15.0 0.00 0.21 0.00 36 1016.3
20260901210620 74 208 5.0 10.0 0.00 0.21 0.00 40 1016.5
20260901205621 74 101 6.0 11.0 0.00 0.21 0.00 42 1016.6
20260901204614 74 158 6.0 10.0 0.00 0.21 0.00 41 1016.7
20260901203646 75 123 7.0 11.0 0.00 0.21 0.00 40 1016.8
20260901202615 74 306 4.0 14.0 0.00 0.21 0.00 43 1016.9
20260901201646 75 120 5.0 11.0 0.00 0.21 0.00 40 1016.9
20260901200615 75 350 3.0 10.0 0.00 0.21 0.00 39 1016.8